Flag for Turkey Weather past 2 weeks in Samsun, Turkey

Now
54 °F

Passing clouds.


Feels Like: 52 °F
Forecast: 40 / 58 °F
Wind: 6 mph from East

Location: Samsun / Carsamba

Current Time: Jan 27, 2015 at 3:09:55 PM

Latest Report: Jan 27, 2015 at 1:50 PM


Visibility: N/A

Pressure: 30.04 "Hg

Humidity: 72%

Dew point: 45 °F

Location of SamsunLocation

Historic Weather in Samsun — Graph

°F

Samsun temperature yesterday

Maximum temperature yesterday: 63 °F (at 12:50 PM)
Minimum temperature yesterday: 43 °F (at 10:50 PM)
Average temperature yesterday: 52 °F

Past Weeks' High & Low Weather Summary

 TemperatureHumidityPressure
High68 °F (Jan 25, 12:50 PM)100% (Jan 13, 9:50 AM)30.45 "Hg (Jan 13, 9:50 AM)
Low28 °F (Jan 15, 6:50 AM)23% (Jan 25, 12:50 PM)29.83 "Hg (Jan 24, 1:50 PM)
Average45 °F73%30.17 "Hg
* Reported Jan 12 1:50 PM — Jan 27 1:50 PM, Samsun, Weather by CustomWeather, © 2014

Note: Actual official high and low records may vary slightly from our data, if they occured in-between our weather recording intervals... More about our weather records

Advertising

Samsun weather history for previous 24 hours

 ConditionsComfort  
Time TempWeatherWind HumidityBarometerVisibility
1:50 PM
Jan 27
54 °FPassing clouds.6 mph72%30.04 "HgN/A
12:50 PM50 °FPassing clouds.6 mph76%30.04 "HgN/A
11:50 AM46 °FScattered clouds.7 mph87%30.07 "Hg5 mi
10:50 AM43 °FScattered clouds.6 mph100%30.09 "Hg4 mi
9:50 AM41 °FFog.7 mph100%30.12 "Hg2 mi
8:50 AM41 °FFog.6 mph100%30.12 "Hg1 mi
7:50 AM41 °FFog.3 mph100%30.12 "Hg1 mi
6:50 AM41 °FFog.2 mph100%30.12 "Hg1 mi
5:50 AM43 °FPassing clouds.3 mph93%30.12 "Hg1 mi
4:50 AM43 °FPassing clouds.2 mph93%30.12 "Hg1 mi
3:50 AM43 °FDense fog.3 mph93%30.15 "Hg1 mi
3:01 AM43 °FDense fog.3 mph100%30.15 "Hg1 mi
2:50 AM43 °FFog.5 mph100%30.15 "Hg1 mi
1:50 AM43 °FFog.3 mph100%30.15 "Hg1 mi
12:50 AM43 °FFog.2 mph100%30.12 "Hg1 mi
11:50 PM
Jan 26
43 °FFog.5 mph100%30.15 "Hg1 mi
10:50 PM43 °FFog.3 mph100%30.12 "Hg1 mi
9:50 PM45 °FFog.5 mph93%30.12 "Hg1 mi
8:50 PM45 °FFog.6 mph93%30.12 "Hg1 mi
7:50 PM46 °FFog.6 mph93%30.12 "Hg1 mi
6:50 PM46 °FFog.7 mph93%30.09 "Hg1 mi
5:50 PM50 °FClear.10 mph82%30.09 "Hg10 mi
4:50 PM52 °FClear.5 mph62%30.07 "Hg10 mi
3:50 PM61 °FScattered clouds.2 mph45%30.04 "HgN/A
Weather by CustomWeather, © 2014

See weather overviewHow to use our weather pages